User: anonymous   Login
Location: Moscow
(55.7500°N, 37.5830°E)
Time: 17:08:04
(UTC+03:00)
Language:

Tiros 1 despin weight - Orbit

View from above orbital plane
View from above orbital plane
View from above satellite
View from above satellite

Ground track
Ground track

The orbit data is extracted from the following two-line orbital elements,

1 00115U 60002D   21342.80305354  .00000123  00000-0  41482-4 0  9994
2 00115  48.1651 200.1394 0034126 106.5014 253.9652 14.83924015271904
Epoch (UTC): 08 December 2021 19:16:23
Eccentricity: 0.0034126
inclination: 48.1651°
perigee height: 593 km
apogee height: 641 km
right ascension of ascending node: 200.1394°
argument of perigee: 106.5014°
revolutions per day: 14.83924015
mean anomaly at epoch: 253.9652°
orbit number at epoch: 27190

The dashed part of the orbit path shows where the satellite is in the earth's shadow,  

DLR